Weather in Cheposh

Russia / Altai Republic     51°35′13″N   85°50′01″E
temp.,
°C
wind,
m/s
gust,
m/s
humid.,
%
clouds,
%
prec.,
mm/h
press.,
hPa
HPBL,
m
9 may, sun
sun901:00+6ssw22740 0.0 102116
04:00+5ssw22760 0.0 102120
07:00+7s22705 0.0 102064
10:00+15sse12390 0.0 1017789
13:00+19n23275 0.0 10141825
16:00+19n34264 0.0 10132530
19:00+16nne344782 0.0 10131064
22:00+8nnw2587100 0.0 101598
10 may, mon
mon1001:00+6nnw11963 0.0 101618
04:00+4n119899 0.0 101741
07:00+4n0089100 0.0 1018136
10:00+10nne1163100 0.0 1015567
13:00+13nne2251100 0.0 10121227
16:00+15nne324256 0.0 10101422
19:00+13n334699 0.0 10101072
22:00+8nnw1165100 0.1 101131
11 may, tue
tue1101:00+6ne007497 0.1 101010
04:00+4nw00816 0.0 101110
07:00+6nw1177100 0.3 1011113
10:00+10n225873 0.1 1010646
13:00+11n335294 0.1 10111051
16:00+12n444680 0.0 10111597
19:00+10nnw3453100 0.0 10131380
22:00+6sw1170100 0.0 101610
12 may, wed
wed1201:00+6w1172100 0.1 101615
04:00+4nw118550 0.0 101712
07:00+5nw1285100 0.2 1018158
10:00+5wnw1287100 0.2 1019585
13:00+6nw2481100 0.9 1019987
16:00+7nnw2378100 1.5 1019860
19:00+7se117238 3.1 1019422
22:00+3s228980 0.1 102121
13 may, thu
thu1301:00+3ssw228791 0.1 102220
04:00+1ssw228867 0.0 102118
07:00+3s12828 0.0 102163
10:00+9ne115552 0.0 10191317
13:00+10ene114697 0.1 10181488
16:00+13ne243664 0.0 10152061
19:00+11n22446 0.0 10151382
22:00+5nnw11755 0.0 101810